This demonstration page uses our WeatherBlox Daily Observations layout. Learn more.

Hourly Observations for January 15, 2020

Temp ( °F °C ) Dew Point ( °F °C ) Humidity (%) Winds ( mph kmh ) Pressure ( in mb ) Visibility ( mi km ) Precip ( " mm )
12:15 am 00:15 Cloudy with Mist and Fog 28 -2 28 -2 100 100 NE 10 17 29.99 1016 1 1.60934 0 0
12:35 am 00:35 Cloudy with Mist and Fog 28 -2 28 -2 100 100 NE 6 9 30.01 1016 1 1.60934 0 0
12:55 am 00:55 Cloudy with Mist and Fog 28 -2 28 -2 100 100 NE 8 13 30.01 1016 1 1.60934 0 0
1:15 am 01:15 Cloudy with Mist and Fog 28 -2 28 -2 100 100 NE 6 9 30 1016 0.75 1.207005 0 0
1:35 am 01:35 Cloudy with Mist and Fog 29 -1.8 29 -1.8 100 100 NE 6 9 30.01 1016 1 1.60934 0 0
1:55 am 01:55 Cloudy with Mist and Fog 29 -1.8 29 -1.8 100 100 NE 5 7 30.01 1016 1 1.60934 0 0
2:15 am 02:15 Cloudy with Mist and Fog 29 -1.7 29 -1.7 100 100 Calm 30.02 1017 0.75 1.207005 0 0
2:35 am 02:35 Cloudy with Mist and Fog 29 -1.6 29 -1.6 100 100 Calm 30.03 1017 0.75 1.207005 0 0
2:55 am 02:55 Cloudy with Mist and Fog 29 -1.5 29 -1.5 100 100 NW 7 11 30.06 1018 0.75 1.207005 0 0
3:15 am 03:15 Cloudy with Mist and Fog 29 -1.5 29 -1.5 100 100 NW 6 9 30.07 1018 1 1.60934 0 0
3:35 am 03:35 Cloudy with Mist and Fog 29 -1.5 29 -1.5 100 100 NNW 5 7 30.08 1019 1 1.60934 0 0
3:55 am 03:55 Cloudy with Mist and Fog 29 -1.5 29 -1.5 100 100 NW 5 7 30.08 1019 1.5 2.41401 0 0
4:15 am 04:15 Cloudy with Mist and Fog 29 -1.4 29 -1.4 100 100 NW 5 7 30.09 1019 2 3.21868 0 0
4:35 am 04:35 Cloudy with Mist and Fog 30 -1.3 30 -1.3 100 100 NNW 7 11 30.11 1020 3 4.82802 0 0
4:55 am 04:55 Cloudy with Mist and Fog 30 -1.2 30 -1.2 100 100 NNW 7 11 30.12 1020 4 6.43736 0 0
5:15 am 05:15 Cloudy with Mist and Fog 30 -1.1 30 -1.1 100 100 NNW 12 19 30.13 1020 4 6.43736 0 0
5:35 am 05:35 Cloudy 30 -1.1 30 -1.1 100 100 NNW 13 20 30.15 1021 7 11.26538 0 0
5:55 am 05:55 Cloudy 30 -1 30 -1 100 100 N 10 17 30.14 1021 7 11.26538 0 0
6:15 am 06:15 Cloudy 30 -1.3 30 -1.3 100 100 N 10 17 30.16 1021 7 11.26538 0 0
6:35 am 06:35 Cloudy 30 -1.1 29 -1.5 97 97 N 14 22 30.18 1022 7 11.26538 0 0
6:55 am 06:55 Cloudy 28 -2 27 -2.7 95 95 N 20 31 30.21 1023 10 16.0934 0 0
7:15 am 07:15 Mostly Cloudy 26 -3.6 24 -4.5 94 94 N 13 20 30.24 1024 10 16.0934 0 0
7:35 am 07:35 Mostly Cloudy 23 -5.1 20 -6.8 88 88 N 16 26 30.27 1025 10 16.0934 0 0
7:55 am 07:55 Mostly Cloudy 20 -6.5 17 -8.5 86 86 NNW 16 26 30.29 1026 10 16.0934 0 0
8:15 am 08:15 Sunny 19 -7.4 16 -9 88 88 NNW 13 20 30.32 1027 10 16.0934 0 0
8:35 am 08:35 Sunny 18 -7.8 15 -9.5 88 88 NNW 15 24 30.33 1027 10 16.0934 0 0
8:55 am 08:55 Sunny 18 -7.8 15 -9.6 87 87 N 16 26 30.34 1028 10 16.0934 0 0
9:15 am 09:15 Sunny 18 -8 14 -10.1 85 85 N 13 20 30.36 1028 10 16.0934 0 0
9:35 am 09:35 Sunny 18 -8 13 -10.5 82 82 N 17 28 30.37 1029 10 16.0934 0 0
9:55 am 09:55 Sunny 18 -7.8 13 -10.4 82 82 N 16 26 30.39 1029 10 16.0934 0 0
10:15 am 10:15 Sunny 19 -7.5 13 -10.4 80 80 N 20 31 30.4 1029 10 16.0934 0 0
10:35 am 10:35 Sunny 19 -7.3 13 -10.5 78 78 N 15 24 30.42 1030 10 16.0934 0 0
10:55 am 10:55 Sunny 19 -7 14 -10.1 79 79 N 16 26 30.43 1030 10 16.0934 0 0
11:15 am 11:15 Sunny 20 -6.5 14 -10 76 76 N 15 24 30.42 1030 10 16.0934 0 0
11:35 am 11:35 Sunny 21 -6.1 14 -9.9 75 75 N 14 22 30.42 1030 10 16.0934 0 0
11:55 am 11:55 Sunny 22 -5.6 14 -10 71 71 N 14 22 30.4 1029 10 16.0934 0 0
12:15 pm 12:15 Sunny 23 -5.2 14 -10 69 69 N 15 24 30.4 1029 10 16.0934 0 0
12:35 pm 12:35 Sunny 23 -4.9 14 -10 68 68 N 14 22 30.4 1030 10 16.0934 0 0
12:55 pm 12:55 Sunny 24 -4.6 14 -9.9 67 67 N 14 22 30.4 1029 10 16.0934 0 0
1:15 pm 13:15 Sunny 24 -4.3 15 -9.6 67 67 N 10 17 30.4 1029 10 16.0934 0 0
1:35 pm 13:35 Sunny 25 -3.7 15 -9.6 64 64 N 12 19 30.4 1030 10 16.0934 0 0
1:55 pm 13:55 Sunny 26 -3.5 15 -9.5 64 64 N 10 17 30.4 1029 10 16.0934 0 0
2:15 pm 14:15 Sunny 26 -3.5 15 -9.6 63 63 N 9 15 30.4 1029 10 16.0934 0 0
2:35 pm 14:35 Sunny 27 -3 15 -9.5 61 61 N 9 15 30.41 1030 10 16.0934 0 0
2:55 pm 14:55 Sunny 27 -2.7 15 -9.3 61 61 NNE 8 13 30.41 1030 10 16.0934 0 0
3:15 pm 15:15 Sunny 27 -3 15 -9.6 61 61 N 9 15 30.43 1030 10 16.0934 0 0
3:35 pm 15:35 Sunny 27 -3 15 -9.5 61 61 N 8 13 30.44 1031 10 16.0934 0 0
3:55 pm 15:55 Sunny 26 -3.1 15 -9.5 62 62 N 8 13 30.46 1031 10 16.0934 0 0
4:15 pm 16:15 Sunny 26 -3.4 15 -9.6 63 63 NNE 12 19 30.47 1032 10 16.0934 0 0
4:35 pm 16:35 Sunny 26 -3.6 15 -9.7 63 63 NNE 9 15 30.5 1033 10 16.0934 0 0
4:55 pm 16:55 Sunny 25 -4.1 14 -9.9 64 64 N 8 13 30.52 1033 10 16.0934 0 0
5:15 pm 17:15 Sunny 23 -5 14 -10.2 67 67 NNE 12 19 30.53 1034 10 16.0934 0 0
5:35 pm 17:35 Clear 22 -5.7 13 -10.4 70 70 NNE 13 20 30.54 1034 10 16.0934 0 0
5:55 pm 17:55 Clear 20 -6.5 13 -10.6 73 73 NNE 13 20 30.57 1035 10 16.0934 0 0
6:15 pm 18:15 Clear 19 -7.2 11 -11.4 72 72 N 17 28 30.6 1036 10 16.0934 0 0
6:35 pm 18:35 Clear 18 -7.7 11 -11.5 74 74 N 18 30 30.6 1036 10 16.0934 0 0
6:55 pm 18:55 Clear 17 -8.1 10 -12.1 73 73 N 16 26 30.63 1037 10 16.0934 0 0
7:15 pm 19:15 Clear 17 -8.6 10 -12.5 74 74 N 14 22 30.65 1038 10 16.0934 0 0
7:35 pm 19:35 Clear 16 -9.1 9 -12.8 75 75 N 15 24 30.66 1038 10 16.0934 0 0
7:55 pm 19:55 Clear 15 -9.5 8 -13.1 75 75 N 14 22 30.68 1039 10 16.0934 0 0
8:15 pm 20:15 Clear 14 -10 8 -13.6 75 75 N 12 19 30.71 1040 10 16.0934 0 0
8:35 pm 20:35 Clear 13 -10.5 8 -13.5 79 79 NNE 13 20 30.71 1040 10 16.0934 0 0
8:55 pm 20:55 Clear 13 -10.7 7 -13.9 78 78 N 12 19 30.72 1040 10 16.0934 0 0
9:15 pm 21:15 Clear 12 -11 6 -14.2 78 78 NNE 10 17 30.75 1041 10 16.0934 0 0
9:35 pm 21:35 Clear 11 -11.5 6 -14.3 80 80 NNE 9 15 30.76 1042 10 16.0934 0 0
9:55 pm 21:55 Clear 11 -11.7 6 -14.5 80 80 NNE 8 13 30.78 1042 10 16.0934 0 0
10:15 pm 22:15 Clear 10 -12.3 6 -14.7 82 82 NNE 6 9 30.79 1043 10 16.0934 0 0
10:35 pm 22:35 Clear 10 -12.2 6 -14.7 82 82 NE 3 6 30.8 1043 10 16.0934 0 0
10:55 pm 22:55 Clear 9 -12.8 5 -15 84 84 NE 6 9 30.81 1043 10 16.0934 0 0
11:15 pm 23:15 Clear 10 -12.3 5 -14.9 81 81 NNE 7 11 30.8 1043 10 16.0934 0 0
11:35 pm 23:35 Clear 9 -12.6 4 -15.5 79 79 NE 3 6 30.82 1044 10 16.0934 0 0
11:55 pm 23:55 Clear 9 -12.7 4 -15.4 80 80 Calm 30.83 1044 10 16.0934 0 0

Powered by AerisWeather